Location: Clarion
(42.7316°N, 93.7330°W)
Time: 08:31:22
(UTC+00:00)

NOSS 3-3 (A) - Pass Details

Date: 22 April 2026
Orbit: 691 x 1518 km, 63.4° (Epoch: 11 January)

Event Time Altitude Azimuth Distance (km) Brightness Sun altitude
Exits shadow 08:23:44 62° 308° (NW) 913 3.8 -27.5°
Maximum altitude 08:23:46 62° 310° (NW) 913 3.8 -27.4°
Drops below altitude 10° 08:29:45 10° 32° (NNE) 2,656 7.3 -26.8°
Sets 08:32:36 0° 35° (NE) 3,737 8.4 -26.5°
